Regional Weather Roundup
Issued by NWS Bismarck, ND

Home | Current Version | Previous Version | Text Only | Print | Product List | Glossary On
Versions: 1 2 3 4 5 6 7 8 9 10 11 12 13 14 15 16 17 18 19 20 21 22 23 24 25 26 27 28 29 30 31 32 33 34 35 36 37 38 39 40 41 42 43 44 45 46 47 48 49 50
000
ASUS43 KBIS 192310
RWRBIS

NWR BROADCAST TEXT
NATIONAL WEATHER SERVICE BISMARCK ND
600 PM CDT SAT AUG 19 2017

NOTE: "FAIR" INDICATES FEW OR NO CLOUDS BELOW 12,000 FEET WITH NO
SIGNIFICANT WEATHER AND/OR OBSTRUCTIONS TO VISIBILITY.


CITY           SKY/WX    TMP DP  RH WIND       PRES   REMARKS
WILLISTON      SUNNY     82  47  29 N25G36    29.81R
MINOT          SUNNY     89  50  26 W21       29.68R
MINOT AFB      SUNNY     87  47  24 NW21G28   29.67R
BISMARCK       MOSUNNY   86  63  45 SW6       29.73F
DICKINSON      CLOUDY    81  47  30 NW17G29   29.82R
GARRISON         N/A     85  47  26 W22G36    29.72S
HETTINGER ARPT CLOUDY    83  45  26 NW14      29.85S
JAMESTOWN      CLOUDY    78  63  59 S10       29.74F
CARRINGTON     FAIR      81  66  61 S10G16    29.75S
HAZEN          FAIR      86  52  30 NW13G22   29.75S
LINTON           N/A     82  66  57 SW3       29.77S
MANDAN         FAIR      82  64  54 SW7       29.75F
RUGBY          FAIR      84  63  48 SW10      29.66F
STANLEY        FAIR      81  52  36 NW17G26   29.80R
TIOGA          FAIR      79  48  34 NW20G31   29.81R
WATFORD CITY   FAIR      82  50  32 NW17G28   29.79S
$$

CITY           SKY/WX    TMP DP  RH WIND       PRES   REMARKS
GRAND FORKS    MOSUNNY   85  61  44 S21       29.71F
GRAND FORKS AF SUNNY     82  60  47 S15       29.72S
DEVILS LAKE    SUNNY     81  63  54 S13       29.71S
FARGO          SUNNY     79  62  56 S14G25    29.76F
CANDO          FAIR      84  64  51 S14G21    29.70S
CAVALIER       FAIR      82  59  44 S17G23    29.67S
GRAFTON        FAIR      82  61  47 S16       29.71S
GWINNER        CLEAR     79  63  57 S9        29.77F
LANGDON        FAIR      81  61  50 S18G29    29.70F
ROLLA          FAIR      82  63  51 SW15      29.68S
WALHALLA       FAIR      84  81  89 S14G28    29.67R HX  98
$$

CITY           SKY/WX    TMP DP  RH WIND       PRES   REMARKS
ABERDEEN       SUNNY     79  62  56 S14       29.77F
MOBRIDGE       SUNNY     86  67  52 S6        29.73S
BUFFALO          N/A     84  39  20 NW10      29.82S
RAPID CITY     SUNNY     91  48  22 NW10      29.84F
GLASGOW        CLOUDY    78  38  23 NW14G26   29.89F
SIDNEY         SUNNY     83  46  27 NW16G25   29.83R
WOLF POINT     CLOUDY    83  39  21 NW17G23   29.87R
GLENDIVE       SUNNY     83  43  24 NW15G26   29.87R
MILES CITY     MOSUNNY   87  36  16 N17       29.89S
BAKER          MOSUNNY   84  40  21 NW18      29.89S
$$

CITY           SKY/WX    TMP DP  RH WIND       PRES   REMARKS
BILLINGS       MOSUNNY   85  29  13 E8        29.91F
GREAT FALLS    CLOUDY    74  38  27 NE14      29.97S
REGINA         PTSUNNY   73  36  25 NW21G33   29.83R
ESTEVAN        CLOUDY    77  45  31 NW24G33   29.79R
$$





USA.gov is the U.S. government's official web portal to all federal, state and local government web resources and services.